Theta_e
293 287 284 288 290 291 293 289 289 292 291 290 289 290 293 295 293 293 293 295 297 297 298 299 299 303 307 311 305 306 307 305 302 300 299 298 297 298 299 300 301 301 301 302
289 284 291 294 294 291 289 286 286 293 291 289 289 290 294 296 296 295 295 295 296 297 295 295 295 296 304 307 303 302 303 303 300 299 299 298 298 298 299 300 300 301 300 300
287 291 294 292 291 290 289 286 286 287 289 289 285 286 289 294 296 297 298 297 296 295 295 294 295 296 300 302 301 301 300 300 300 299 298 298 298 298 297 298 299 299 300 299
290 294 292 289 290 290 285 291 291 290 284 280 286 278 289 293 292 294 295 292 291 293 294 294 295 295 298 299 297 297 297 297 298 298 297 296 296 295 295 296 297 298 299 298
289 290 288 288 289 292 288 290 289 288 283 280 282 277 285 292 291 291 292 292 291 292 293 293 294 296 298 296 295 295 297 298 298 299 298 296 295 296 296 296 296 297 297 297
290 293 288 290 288 289 291 287 286 284 281 272 281 281 285 288 291 293 293 293 292 292 292 293 295 297 295 295 295 296 297 296 297 297 297 296 295 295 295 294 294 294 294 295
288 288 288 289 285 288 289 285 279 277 272 275 285 280 286 292 293 292 293 291 291 291 291 292 294 294 294 294 295 296 296 295 296 296 296 296 295 294 294 294 293 292 292 293
281 281 289 288 286 284 284 285 281 276 277 277 280 277 286 291 289 291 292 291 291 291 292 293 293 294 294 295 295 295 295 295 295 295 295 295 295 294 294 293 293 292 292 292
282 282 287 288 289 289 284 280 287 281 278 276 279 282 288 288 287 287 289 289 289 290 291 292 293 294 294 294 294 295 294 294 295 295 295 294 294 294 293 293 293 292 292 293
284 278 286 286 287 287 287 287 279 281 275 275 278 279 283 283 285 287 287 287 289 290 291 291 293 293 293 294 294 295 295 294 295 295 294 294 294 293 293 292 292 292 292 292
287 282 280 283 281 281 282 281 283 284 281 278 277 277 285 284 287 286 287 288 289 290 291 291 292 292 293 293 294 294 293 294 294 294 293 293 293 293 293 292 292 291 292 291
287 282 276 280 288 286 284 283 283 278 277 280 280 277 288 287 289 289 288 289 289 290 290 291 291 292 291 291 293 292 292 293 293 293 293 293 293 292 292 291 291 291 290 290
285 277 274 277 281 284 282 283 284 283 282 278 276 277 288 288 288 289 287 288 289 289 289 290 291 290 291 291 292 292 292 292 293 293 292 292 292 292 291 291 290 290 289 289
285 280 275 272 278 281 279 282 283 281 277 276 279 279 286 286 286 287 288 287 287 289 290 290 290 291 290 291 291 291 292 293 292 291 291 291 291 291 291 290 289 290 290 289
280 276 278 278 279 280 280 280 281 281 281 278 279 281 285 288 287 291 289 290 289 288 289 289 289 289 289 290 291 291 291 292 291 290 290 291 291 291 290 289 289 290 289 288
280 273 274 271 275 277 276 279 280 281 281 282 282 280 288 289 287 288 289 288 287 288 289 289 290 290 289 290 291 291 291 291 290 290 290 291 290 289 289 289 289 289 288 287
274 274 273 268 274 273 269 274 278 279 282 283 279 283 287 286 288 287 286 288 287 287 287 288 289 289 289 290 292 290 290 290 289 289 290 289 289 288 289 289 288 287 286 286
271 271 273 269 269 262 274 280 279 279 281 283 283 285 287 287 287 288 289 288 288 288 289 289 288 289 290 290 290 290 289 289 288 287 288 288 287 286 286 286 285 285 285 284
278 274 266 266 266 271 274 276 277 276 276 282 282 284 285 286 285 285 288 291 290 288 289 290 290 290 289 289 289 289 287 286 286 285 285 285 285 284 284 283 285 283 283 285
277 278 273 263 259 255 272 277 281 282 272 281 282 282 283 283 278 281 287 288 288 285 285 288 289 288 288 287 288 287 286 286 285 284 284 284 283 283 281 282 284 284 284 285
261 262 264 267 265 270 277 278 280 270 272 279 281 282 281 280 282 285 287 286 285 284 283 284 285 287 287 287 287 287 286 285 286 283 282 281 281 280 280 281 284 283 285 284
265 260 259 259 256 260 277 276 272 278 279 280 281 282 282 283 283 284 285 285 285 281 280 281 282 285 283 286 287 285 285 286 283 282 281 279 277 280 282 283 283 283 283 283
264 269 264 266 268 276 279 277 280 280 280 280 282 283 283 283 283 284 283 284 284 284 283 280 282 280 282 284 286 285 285 283 281 280 279 278 278 280 282 282 281 282 282 279
273 275 271 271 274 275 276 279 280 280 279 283 282 283 283 282 284 284 283 283 283 283 283 280 281 280 280 281 283 286 282 282 281 279 278 279 278 277 278 280 280 278 277 275
273 274 272 271 274 275 277 278 279 280 280 280 280 282 282 282 282 283 284 283 283 282 282 282 282 282 280 281 280 281 281 282 281 280 280 280 279 279 278 280 279 280 279 281
275 273 270 269 275 275 276 278 279 278 278 279 279 281 283 283 282 283 283 283 282 282 281 280 279 278 279 279 279 279 280 281 282 281 281 280 280 278 279 278 276 286 287 287
Wind_Speed
6 6 10 13 16 9 6 3 7 2 4 5 9 12 13 8 10 10 10 9 9 9 7 6 9 8 6 12 10 9 14 10 7 5 6 5 5 4 4 5 6 7 5 5
2 12 12 10 9 11 11 8 8 7 6 3 6 12 11 11 10 13 14 12 11 9 7 2 4 5 7 10 12 9 9 11 7 5 4 4 5 4 5 4 6 5 5 5
12 3 1 14 8 7 8 9 5 7 2 5 5 11 11 13 20 16 12 8 6 9 10 9 8 7 8 9 10 10 9 8 7 8 6 5 6 4 3 3 4 3 4 3
12 16 15 4 10 7 8 4 10 6 5 5 3 9 6 5 6 8 9 7 7 6 5 9 9 8 8 8 9 9 8 9 8 8 7 7 4 4 3 4 3 3 4 4
6 1 4 13 9 8 4 3 3 4 3 5 5 2 6 11 13 9 11 9 10 9 9 9 9 9 8 9 8 9 9 8 8 8 8 6 7 5 4 4 4 3 3 4
19 2 4 5 3 3 8 6 5 3 5 1 11 9 18 13 13 9 9 12 10 10 9 9 9 10 9 8 8 8 9 7 8 8 8 9 9 6 5 4 3 3 2 2
7 21 5 4 3 2 5 6 2 3 2 12 10 9 23 6 7 2 8 12 10 9 9 10 12 13 11 9 9 8 9 8 8 8 8 8 8 7 7 5 4 2 2 2
4 5 17 12 13 9 13 15 8 8 7 4 3 10 10 3 3 5 10 10 9 9 8 8 11 11 12 10 9 9 9 9 8 8 8 7 7 4 4 5 3 2 2 1
5 6 6 5 8 8 5 10 11 5 4 1 5 8 9 6 3 2 9 9 9 9 9 11 10 11 10 9 9 9 10 8 8 8 7 7 6 6 5 5 4 2 2 2
2 7 8 3 4 7 9 3 5 3 6 6 6 6 7 4 7 6 8 10 11 9 11 10 10 10 8 8 8 9 8 9 8 8 7 6 6 6 5 4 4 3 2 1
6 8 2 2 8 7 5 6 5 4 4 3 1 5 1 4 3 9 8 9 10 11 11 11 9 8 9 8 8 8 8 9 8 7 7 7 6 6 5 4 3 3 2 4
1 4 4 7 3 8 6 12 11 3 3 2 2 7 3 4 6 7 7 8 9 9 8 8 8 9 9 8 8 8 8 8 7 7 7 7 6 5 4 4 4 4 3 2
5 4 4 4 3 4 3 8 11 7 1 5 4 5 2 7 8 7 4 8 9 9 9 8 8 8 8 8 8 8 8 7 7 7 7 6 6 6 5 5 4 3 2 1
5 6 6 14 8 1 4 4 7 10 4 5 10 7 11 8 7 6 6 3 8 9 9 8 7 8 8 8 8 8 7 7 7 7 7 7 7 6 5 5 4 2 2 1
10 6 5 10 16 10 11 11 7 10 9 5 4 11 9 9 6 4 3 4 6 6 9 9 9 8 8 8 7 7 7 8 7 7 7 7 6 6 6 5 4 3 2 1
8 8 18 13 12 9 13 15 14 16 14 12 17 21 13 7 3 4 5 8 8 8 7 6 5 8 10 11 10 10 10 9 8 8 7 7 7 7 6 5 4 3 1 2
10 5 8 7 8 14 9 9 15 16 14 13 15 19 11 5 7 8 5 8 9 6 5 10 14 11 10 12 12 12 11 9 9 8 7 7 7 6 6 5 4 3 1 1
11 11 8 10 8 6 7 13 10 8 12 14 17 18 15 10 4 7 7 7 10 11 11 12 9 8 10 8 9 9 9 10 9 7 7 7 7 6 6 5 3 1 1 0
14 10 5 7 9 13 14 16 8 5 9 10 10 7 5 5 3 8 5 9 11 11 13 13 12 8 8 9 9 11 9 9 8 8 7 7 7 6 5 5 4 3 2 2
3 5 7 4 4 7 6 9 5 5 6 16 20 14 9 3 3 7 6 5 10 3 5 8 9 8 10 9 10 12 12 11 11 9 8 6 6 6 5 5 5 4 2 4
4 5 4 9 8 7 7 9 8 6 6 20 17 16 13 7 5 5 7 7 4 2 4 2 5 10 12 11 12 13 12 13 11 8 7 7 6 6 5 5 4 4 4 3
5 3 4 3 1 9 8 10 6 5 11 15 15 12 13 10 9 10 9 9 8 5 4 2 4 7 6 11 13 13 15 12 9 8 7 7 6 5 4 6 5 4 3 5
5 6 4 3 6 15 18 13 8 4 8 11 6 11 15 18 14 7 6 8 8 9 6 3 5 4 5 9 13 15 12 11 10 9 8 6 6 6 7 6 6 4 5 4
10 11 12 14 16 16 16 19 16 11 14 9 6 6 7 15 18 14 7 7 7 7 7 3 5 6 7 6 7 9 11 11 11 9 7 6 6 5 5 3 4 4 4 3
8 8 14 15 17 19 18 18 20 14 7 12 11 8 9 7 13 14 13 8 8 7 4 5 7 6 6 6 6 7 10 12 10 7 6 6 5 5 4 4 5 5 5 5
14 18 13 16 19 14 14 14 14 16 7 7 11 10 10 9 10 11 13 10 7 8 3 3 3 4 5 6 5 6 7 8 9 7 5 4 4 4 4 4 3 9 11 11
Wind_Direction
204 214 211 203 209 235 234 268 258 240 172 184 227 250 259 239 203 206 211 217 224 203 204 179 179 167 170 124 121 136 136 143 132 123 118 110 134 118 95 90 75 70 57 43
154 239 233 240 230 227 241 251 258 298 156 182 261 263 264 252 233 205 213 216 217 184 153 133 140 170 161 135 137 133 145 147 140 131 128 125 133 102 115 102 95 79 66 47
226 209 294 233 227 227 235 217 211 214 156 228 330 274 231 243 237 233 227 208 188 177 168 168 188 182 148 136 140 144 147 147 111 110 102 85 79 77 90 120 101 97 85 62
243 243 246 267 236 183 247 221 228 238 112 232 175 278 226 251 228 204 212 188 192 198 177 159 163 171 154 143 128 125 120 109 116 121 120 137 143 145 119 113 109 113 102 68
226 275 290 221 222 208 221 30 338 191 145 54 219 311 247 213 242 205 211 194 188 190 177 162 158 165 139 121 117 113 112 111 115 114 116 115 101 103 111 107 113 115 113 112
263 215 290 244 53 312 113 86 54 43 101 243 217 168 266 226 226 227 193 184 171 152 161 152 155 129 119 111 114 117 120 117 109 109 112 118 123 126 119 115 115 111 128 130
294 241 190 161 145 338 165 128 170 211 212 232 164 170 248 303 308 231 193 167 152 150 159 158 149 136 132 132 133 132 130 125 123 116 111 113 119 120 123 124 116 109 82 58
300 287 203 183 218 172 196 184 192 227 205 240 326 213 245 206 62 83 138 142 137 147 156 152 139 138 140 147 149 138 137 132 129 123 118 114 116 114 109 106 102 94 98 83
285 241 334 81 223 222 201 230 255 325 133 214 217 267 290 167 162 158 136 135 149 153 147 145 146 144 152 152 151 143 136 135 133 128 126 123 114 111 116 114 111 100 70 39
299 293 4 14 345 296 195 304 167 195 210 226 239 250 242 207 194 187 163 157 161 156 151 158 154 152 148 150 141 132 133 137 134 131 130 124 122 119 120 118 104 77 50 22
205 209 210 67 211 200 171 233 217 175 255 256 233 255 9 15 190 187 185 161 160 156 159 157 150 144 142 135 131 135 134 133 133 130 124 126 134 135 134 129 123 100 56 48
286 317 287 222 316 339 298 218 234 230 206 244 38 274 56 3 332 164 181 150 145 145 147 148 141 133 133 136 137 138 136 134 142 140 139 147 144 147 149 140 113 93 71 51
348 249 308 281 174 191 209 240 260 233 124 246 202 245 83 72 42 33 144 142 138 144 148 148 137 143 147 147 146 147 148 150 148 141 146 153 160 162 155 135 119 119 124 43
288 255 224 244 273 64 275 291 248 224 226 229 233 278 282 54 65 38 12 99 147 155 160 158 152 153 155 157 155 152 149 146 146 148 158 166 172 166 152 135 147 143 106 45
4 288 310 303 300 292 277 282 286 232 237 262 341 282 298 57 341 280 189 247 168 182 166 170 163 163 163 157 153 145 145 150 150 157 171 174 164 153 142 155 154 129 88 27
340 304 318 291 285 355 303 267 244 249 250 234 243 267 272 283 130 142 234 203 210 199 187 189 169 166 174 170 172 160 161 162 155 167 176 171 155 152 162 161 150 114 73 5
287 277 308 287 321 334 304 250 252 254 249 244 238 251 269 208 209 227 215 209 209 196 234 198 193 193 178 176 178 172 164 153 162 173 176 163 154 160 166 158 142 133 113 46
245 247 258 273 312 247 246 321 298 273 269 256 255 265 265 261 259 247 221 196 215 207 201 207 198 188 185 176 168 154 154 161 165 174 169 159 156 157 159 144 132 171 154 257
227 246 255 230 242 275 298 295 347 3 316 325 316 297 282 274 57 289 223 216 224 210 209 209 200 182 156 174 173 155 153 156 162 177 171 160 156 157 156 158 191 226 178 294
177 176 270 304 218 222 205 268 332 309 286 5 354 340 312 132 197 263 296 296 259 239 173 192 185 172 167 178 166 157 166 169 184 178 181 164 160 160 173 166 193 220 198 265
315 319 220 285 286 305 304 339 319 252 311 338 343 342 357 337 289 317 327 323 8 306 250 182 168 186 190 169 168 173 171 186 189 158 156 160 159 165 160 165 181 203 219 251
209 190 249 295 319 284 25 358 25 313 320 330 323 312 323 319 325 323 322 327 323 295 283 240 204 214 176 172 175 178 185 183 153 154 150 153 156 146 152 178 187 198 198 247
277 204 228 192 263 304 312 301 293 358 319 304 340 328 323 313 305 300 314 318 306 303 286 231 221 203 188 181 187 181 187 150 149 148 154 154 157 161 168 176 187 194 209 216
264 266 259 272 274 276 281 289 287 276 292 263 282 278 306 309 317 305 290 273 273 281 265 222 197 203 201 187 196 193 152 153 152 149 149 156 159 171 178 176 176 183 197 216
250 281 267 270 275 275 272 272 283 288 297 306 285 266 272 282 298 302 303 292 279 277 250 213 211 204 196 168 155 153 151 146 144 137 152 159 166 174 173 202 192 205 213 187
249 251 250 254 260 259 273 282 284 292 275 267 287 285 267 266 283 296 299 290 287 276 244 221 217 152 152 133 131 120 128 135 138 143 153 168 169 176 182 187 254 239 235 237